Location: P�rn�nmaa
(61.1833°N, 23.0000°E)
Time: 19:08:47
(UTC+00:00)

ARGOS - Pass Details

Date: 08 December 2019
Orbit: 820 x 835 km, 98.5° (Epoch: 17 January)

Event Time Altitude Azimuth Distance (km) Brightness Sun altitude
Exits shadow 17:37:59 41° 354° (N) 1,194 4.0 -29.2°
Drops below altitude 10° 17:41:26 10° 344° (NNW) 2,436 5.8 -29.6°
Sets 17:43:48 0° 342° (NNW) 3,371 6.6 -29.9°
